Location: Gleiwitz
(50.2976°N, 18.6766°E)
Time: 14:06:27
(UTC+00:00)

Daily predictions for brighter satellites

Satellite Brightness Start Highest point End
(mag) Time Altitude Azimuth Time Altitude Azimuth Time Altitude Azimuth
Aureole 3 4.2 17:47:02 10° SSE 17:51:38 53° E 17:57:31 10° NNE
STARLINK-1246 4.1 17:50:22 10° W 17:54:29 61° N 17:58:36 10° ENE
Cosmos 1544 Rocket 4.2 17:52:18 10° SSW 17:56:41 63° WNW 18:01:08 10° N
Cosmos 1626 3.6 17:53:29 10° NNW 17:57:00 41° W 18:00:29 10° SSW
STARLINK-1224 4.1 17:55:21 10° W 17:59:28 60° N 18:03:35 10° ENE
STARLINK-1201 3.7 17:56:51 10° WNW 18:00:03 50° N 18:03:15 10° E
Cosmos 1825 Rocket 4.0 17:57:19 10° N 18:01:33 43° ENE 18:05:43 10° SSE
CZ-4 R/B 4.0 17:58:56 10° SSW 18:02:01 23° W 18:05:08 10° NW
Cosmos 292 Rocket 4.1 17:58:46 10° NNW 18:03:34 72° WSW 18:08:21 10° SSE
STARLINK-1225 4.1 18:00:23 10° W 18:04:29 60° N 18:08:36 10° ENE
Cosmos 1943 Rocket 2.8 18:01:13 10° NW 18:06:40 58° WSW 18:12:07 10° S
Cosmos 2074 Rocket 4.1 18:00:38 10° N 18:06:53 62° ENE 18:13:06 10° SSE
BREEZE-M DEB (TANK) 4.0 17:58:44 10° W 18:07:12 76° SSW 18:10:14 11° ESE
COSMOS 2455 3.8 18:02:27 10° NNW 18:07:59 36° NE 18:13:28 10° ESE
Cosmos 2369 Rocket 2.5 18:02:40 10° NNW 18:08:22 73° WSW 18:13:59 10° SSE
Cosmos 1703 3.9 18:05:05 10° N 18:08:46 36° ENE 18:12:27 10° SE
STARLINK-1230 4.1 18:05:22 10° W 18:09:28 59° N 18:13:35 10° ENE
IRS-1A Rocket 4.5 18:06:00 10° SSE 18:11:44 84° WSW 18:17:37 10° NNW
SPOT 3 Rocket 3.9 18:06:53 10° SE 18:11:54 50° ENE 18:16:56 10° N
Cosmos 1758 Rocket 3.5 18:10:02 10° N 18:14:23 67° ENE 18:18:40 10° SSE
IRIDIUM 106 4.3 18:09:12 10° N 18:14:27 72° E 18:19:39 10° S
STARLINK-1243 4.1 18:10:20 10° W 18:14:27 58° N 18:18:33 10° ENE
CZ-2C R/B 4.3 18:12:39 10° NNE 18:17:02 37° E 18:21:21 10° SSE
Cosmos 921 Rocket 4.2 18:14:00 10° N 18:17:28 24° ENE 18:20:23 13° ESE
Abrixas rocket 2.1 18:15:24 10° WSW 18:18:19 59° S 18:20:44 14° E
STARLINK-1236 4.1 18:15:22 10° W 18:19:28 58° N 18:23:34 10° ENE
Cosmos 407 Rocket 4.4 18:15:39 10° SSE 18:19:51 26° E 18:24:02 10° NE
Cosmos 1437 2.5 18:18:48 10° N 18:21:51 83° ENE 18:24:51 10° SSE
Cosmos 1953 Rocket 3.9 18:17:32 10° N 18:21:54 48° ENE 18:26:14 10° SSE
Cosmos 1953 2.2 18:18:48 10° S 18:22:46 86° E 18:26:47 10° N
Cosmos 2228 3.4 18:19:56 10° SSE 18:23:59 42° E 18:28:05 10° NNE
Cosmos 1606 Rocket 3.8 18:22:02 10° SSE 18:26:18 48° E 18:30:36 10° NNE
Cosmos 1818 3.8 18:21:28 10° SSW 18:26:39 47° ESE 18:31:52 10° NE
Cosmos 2263 4.5 18:22:45 10° NNW 18:28:21 70° WSW 18:33:54 10° SSE
Cosmos 1908 3.8 18:25:18 10° SSE 18:28:52 37° E 18:32:29 10° NNE
STARLINK-1269 4.1 18:25:22 10° W 18:29:28 58° N 18:33:21 11° E
ATLAS CENTAUR R/B 3.9 18:29:36 10° NNW 18:31:03 12° N 18:32:29 10° NNE
Meteor 1-11 4.4 18:25:43 10° N 18:31:25 56° ENE 18:37:01 10° SSE
SL-08 RB Rocket 3.7 18:29:48 10° SSE 18:34:22 89° ENE 18:39:01 10° NNW
STARLINK-1200 4.1 18:30:22 10° W 18:34:28 58° N 18:38:08 13° E
ERBS 3.9 18:31:45 10° NW 18:34:43 27° N 18:37:31 11° ENE
Cosmos 1943 3.2 18:29:29 10° SSW 18:35:06 69° ESE 18:40:47 10° NNE
APEX 4.5 18:30:11 10° NNW 18:37:01 70° NE 18:41:48 15° SE
CZ-2C R/B 3.5 18:34:11 10° S 18:39:01 59° W 18:43:45 10° NNW
STARLINK-1192 4.1 18:35:21 10° WNW 18:39:27 58° N 18:42:54 14° E
BREEZE-M DEB (TANK) 2.1 18:35:00 10° WSW 18:39:47 51° SSE 18:41:06 23° E
Cosmos 1461 3.4 18:35:53 10° NW 18:40:19 55° NE 18:43:27 19° ESE
CZ-4C R/B 4.2 18:38:49 10° NW 18:44:10 28° N 18:50:19 10° ENE
STARLINK-1244 4.1 18:40:21 10° WNW 18:44:27 58° N 18:47:42 16° E
H-2A R/B 3.1 18:43:51 10° S 18:48:52 46° W 18:53:47 10° NNW
STARLINK-1138 4.0 18:45:19 10° WNW 18:49:25 59° N 18:52:28 17° E
NOSS 3-4 (A) 3.8 18:45:58 10° NW 18:52:54 88° SW 18:58:53 18° SE
NOSS 3-4 (C) 3.8 18:46:05 10° NW 18:53:00 88° SW 18:58:59 18° SE
Cosmos 1656 Rocket 4.0 18:48:41 10° NNW 18:54:19 66° WSW 18:59:39 11° SSE
STARLINK-1143 4.0 18:50:17 10° WNW 18:54:24 59° N 18:57:13 19° E
CZ-2C R/B 2.6 18:51:41 10° NNE 18:56:47 54° E 19:01:50 10° S
Cosmos 2341 Rocket 4.2 18:50:47 10° N 18:57:03 54° ENE 19:01:44 18° SSE
SPOT 5 4.3 18:57:33 16° ENE 18:58:43 18° ENE 19:01:35 10° NNE
SL-16 R/B 4.4 18:54:03 10° WSW 18:58:54 28° NW 19:03:45 10° NNE
STARLINK-1241 4.0 18:55:19 10° WNW 18:59:26 60° N 19:02:02 21° E
STARLINK-1228 2.6 18:56:38 10° WNW 18:59:31 77° NNE 19:00:22 41° E
Resurs 1-3 3.6 18:55:38 11° SSE 18:59:48 82° WSW 19:04:13 10° NNW
Aureole 1 Rocket 4.1 18:53:41 10° S 19:01:10 64° ESE 19:07:04 10° NNE
MetOp-A 4.3 18:57:08 10° S 19:02:29 73° WSW 19:07:52 10° NNW
Cosmos 1726 3.3 18:59:50 10° SSW 19:03:27 45° WNW 19:07:03 10° N
NOSS 3-3 (A) 4.2 18:57:30 10° SW 19:03:29 75° NW 19:10:20 10° NE
NOSS 3-3 (C) 4.2 18:57:36 10° SW 19:03:35 75° NW 19:10:27 10° NE
STARLINK-1239 4.0 19:00:18 10° WNW 19:04:25 61° N 19:06:48 23° E
ARGOS 4.3 18:59:35 10° SSW 19:04:41 42° W 19:09:48 10° NNW
Cosmos 2058 4.1 19:04:01 10° NNE 19:07:28 25° ENE 19:08:05 24° E
STARLINK-60 4.3 19:06:00 10° SSW 19:07:54 25° S 19:07:54 25° S
STARLINK-1240 3.9 19:05:18 10° WNW 19:09:25 62° N 19:11:36 26° E
STARLINK-1233 2.9 19:07:14 10° WNW 19:10:23 73° NNE 19:11:11 46° E
STARLINK-1212 2.9 19:07:42 10° WNW 19:10:51 73° NNE 19:11:36 47° E
STARLINK-1105 2.9 19:08:09 10° WNW 19:11:17 74° NNE 19:12:03 47° E
STARLINK-1206 2.9 19:08:38 10° WNW 19:11:46 74° NNE 19:12:28 49° E
BREEZE M DEB (TANK) 3.9 19:08:49 10° SSW 19:12:06 30° SE 19:19:58 10° ENE
STARLINK-1247 2.9 19:09:05 10° WNW 19:12:13 74° NNE 19:12:54 49° E
STARLINK-1227 2.9 19:09:29 10° WNW 19:12:38 75° NNE 19:13:20 49° E
STARLINK-1218 2.9 19:10:00 10° WNW 19:13:08 75° NNE 19:13:47 51° E
STARLINK-1226 2.9 19:10:25 10° WNW 19:13:34 75° NNE 19:14:12 51° E
STARLINK-1254 2.9 19:10:50 10° WNW 19:13:59 76° NNE 19:14:38 52° E
DMSP B5D2-2 4.0 19:08:44 10° NNE 19:14:00 85° ESE 19:19:14 10° SSW
STARLINK-1216 3.9 19:10:18 10° WNW 19:14:25 63° N 19:16:24 29° E
STARLINK-1215 2.8 19:11:21 10° WNW 19:14:28 76° NNE 19:15:04 53° E
Cosmos 2218 Rocket 4.4 19:08:40 10° N 19:14:38 46° ENE 19:17:37 27° SE
STARLINK-67 2.5 19:12:16 10° WNW 19:14:43 61° SW 19:14:43 61° SW
STARLINK-1231 2.8 19:11:48 10° WNW 19:14:55 76° NNE 19:15:30 54° E
STARLINK-1232 2.8 19:12:42 10° WNW 19:15:49 77° NNE 19:16:22 56° E
STARLINK-1217 2.8 19:13:09 10° WNW 19:16:16 77° NNE 19:16:48 57° E
STARLINK-1208 2.8 19:13:32 10° WNW 19:16:42 78° NNE 19:17:15 56° E
STARLINK-1229 2.8 19:14:02 10° WNW 19:17:10 78° NNE 19:17:39 58° E
Terra 3.3 19:16:09 20° ENE 19:17:13 21° ENE 19:20:47 10° N
STARLINK-1271 2.8 19:14:29 10° WNW 19:17:37 78° NNE 19:18:06 59° E
STARLINK-1234 2.6 19:14:36 10° WNW 19:17:39 88° SSW 19:17:59 68° ESE
Cosmos 1980 Rocket 4.2 19:14:37 10° N 19:18:02 16° NNE 19:21:24 10° ENE
STARLINK-1270 2.8 19:14:57 10° WNW 19:18:05 79° NNE 19:18:33 60° E
STARLINK-1154 2.8 19:15:23 10° WNW 19:18:31 79° NNE 19:18:57 61° E
RESURS DK-1 4.3 19:16:25 10° N 19:19:17 18° NE 19:20:33 16° ENE
STARLINK-1237 3.9 19:15:16 10° WNW 19:19:23 65° N 19:21:10 32° E
STARLINK-1197 2.8 19:16:17 10° WNW 19:19:25 80° NNE 19:19:50 63° E
STARLINK-1189 2.8 19:16:45 10° WNW 19:19:53 80° NNE 19:20:16 64° E
STARLINK-1198 2.8 19:17:11 10° WNW 19:20:19 81° NNE 19:20:42 65° E
STARLINK-1209 2.5 19:17:29 10° WNW 19:20:29 82° SSW 19:20:37 77° SSE
STARLINK-1188 2.7 19:17:39 10° WNW 19:20:46 81° NNE 19:21:08 66° E
STARLINK-1235 2.7 19:18:17 10° WNW 19:21:27 87° SSW 19:21:46 70° ESE
Cosmos 2058 Rocket 3.0 19:17:06 10° S 19:21:37 89° E 19:26:09 10° N
MOS 1 Rocket 3.6 19:16:27 10° NNE 19:21:50 89° WNW 19:27:17 10° SSW
STARLINK-1187 2.7 19:18:42 10° WNW 19:21:53 87° NNE 19:22:12 69° ESE
USA 234 3.4 19:16:25 10° ENE 19:22:41 46° SE 19:28:54 10° SSW
STARLINK-1199 2.7 19:19:35 10° WNW 19:22:45 83° NNE 19:23:03 69° E
STARLINK-1191 2.7 19:20:02 10° WNW 19:23:12 83° NNE 19:23:29 71° E
STARLINK-1210 2.7 19:20:30 10° WNW 19:23:39 84° NNE 19:23:55 72° E
STARLINK-1221 2.7 19:20:56 10° WNW 19:24:06 84° NNE 19:24:21 73° E
STARLINK-1202 3.8 19:20:15 10° WNW 19:24:23 66° NNE 19:25:56 36° E
STARLINK-1219 2.7 19:21:23 10° WNW 19:24:32 84° NNE 19:24:47 74° E
Resurs 01 Rocket 1.9 19:21:42 20° S 19:24:42 66° WSW 19:29:07 10° NNW
STARLINK-1222 2.7 19:21:51 10° WNW 19:25:00 85° NNE 19:25:13 75° E
ATLAS 2AS CENTAUR R/B 3.2 19:17:45 10° NW 19:25:14 60° WSW 19:29:59 21° SSE
STARLINK-1211 2.7 19:22:18 10° WNW 19:25:27 85° NNE 19:25:39 76° E
STARLINK-1214 2.7 19:22:45 10° WNW 19:25:55 86° NNE 19:26:05 77° E
STARLINK-1245 2.7 19:23:14 10° WNW 19:26:22 86° NNE 19:26:30 80° E
STARLINK-1238 2.7 19:23:38 10° WNW 19:26:48 86° NNE 19:26:57 79° E
Cosmos 1892 3.8 19:23:30 10° N 19:26:53 30° ENE 19:26:53 30° ENE
STARLINK-1205 2.7 19:24:34 10° WNW 19:27:43 87° NNE 19:27:48 83° E
STARLINK-1204 2.7 19:25:02 10° WNW 19:28:10 88° NNE 19:28:15 85° E
STARLINK-1203 3.8 19:24:25 10° WNW 19:28:37 70° NNE 19:29:59 40° E
Iridium 4 Rocket 3.5 19:26:38 10° N 19:30:41 40° E 19:30:54 39° E
Cosmos 2181 Rocket 4.1 19:27:29 24° SSE 19:31:07 56° E 19:37:09 10° NNE
Cosmos 962 Rocket 4.5 19:25:13 10° N 19:31:25 85° W 19:35:47 20° S
Cosmos 1190 Rocket 3.9 19:26:23 10° SSW 19:31:42 82° ESE 19:37:01 10° NNE
Nadezhda 1 Rocket 4.4 19:26:20 10° SSW 19:32:41 65° WNW 19:39:00 10° N
Cosmos 1140 Rocket 3.3 19:27:51 10° SSW 19:33:02 74° ESE 19:38:13 10° NNE
CARTOSAT-1 4.3 19:33:01 34° E 19:33:27 35° ENE 19:37:22 10° N
USA 245 4.3 19:30:56 31° SSE 19:33:48 76° ENE 19:40:09 10° NNW
Spot 2 Rocket 3.4 19:31:32 33° SSE 19:33:53 81° ENE 19:39:01 10° NNW
SL-4 R/B 1.7 19:30:46 10° WSW 19:33:43 57° SSW 19:33:43 57° SSW
STARLINK-1246 3.7 19:30:13 10° WNW 19:34:22 70° NNE 19:35:30 45° E
SL-8 Rocket 4.0 19:29:04 10° N 19:35:24 74° E 19:38:40 30° SSE
STARLINK-1201 2.9 19:33:12 10° WNW 19:36:24 84° W 19:36:24 84° W
Cosmos 1340 Rocket 3.2 19:32:47 10° SSW 19:36:47 66° WNW 19:40:49 10° N
ATLAS 5 CENTAUR R/B 1.4 19:34:57 10° SSW 19:39:06 62° SE 19:43:48 10° NE
STARLINK-1224 3.7 19:35:12 10° WNW 19:39:21 72° NNE 19:40:17 51° E
Cosmos 1825 4.1 19:39:46 10° NNE 19:41:43 18° NE 19:41:43 18° NE
SL-24 R/B - RUBIN 2 4.2 19:37:05 10° SSW 19:42:45 78° SE 19:49:09 10° NE
STARLINK-1225 3.6 19:40:12 10° WNW 19:44:21 74° NNE 19:45:05 57° E
Cosmos 2366 rocket 3.9 19:40:50 10° N 19:47:00 72° ENE 19:49:24 39° SSE
In-Cosmos 22 Rocket 4.2 19:42:21 10° N 19:48:13 77° ENE 19:50:21 41° SSE
STARLINK-1230 3.6 19:45:11 10° WNW 19:49:20 77° NNE 19:49:52 64° ENE
Cosmos 1300 2.7 19:50:48 58° SSW 19:51:28 77° W 19:55:19 10° N
MINOTAUR IV R/B 4.4 19:51:09 63° SE 19:51:31 66° ESE 19:56:00 10° NNE
Cosmos 468 Rocket 4.1 19:47:31 10° NNW 19:52:41 60° ENE 19:53:40 50° ESE
Abrixas rocket 4.0 19:50:54 10° W 19:52:19 23° WSW 19:52:19 23° WSW
IGS 5A 3.3 19:53:17 69° SSE 19:53:46 88° ENE 19:57:59 10° NNW
STARLINK-1243 3.5 19:50:08 10° WNW 19:54:18 79° NNE 19:54:37 72° ENE
COSMOS 2455 3.1 19:48:21 10° NW 19:54:19 64° WSW 19:56:39 37° S
Cosmos 1959 Rocket 4.4 19:49:23 10° N 19:55:47 84° E 19:58:19 39° SSE
Cosmos 921 Rocket 3.9 19:51:58 10° NNW 19:55:55 41° WSW 19:57:11 32° SW
Cosmos 1812 Rocket 3.5 19:56:43 61° E 19:56:43 61° E 20:00:48 10° NNE
STARLINK-1236 3.5 19:55:08 10° WNW 19:59:18 82° NNE 19:59:25 81° NE
Cosmos 676 Rocket 3.9 19:56:21 21° SSW 20:00:00 86° ESE 20:05:18 10° NNE
Cosmos 407 Rocket 4.2 19:56:31 10° SW 20:01:32 52° WNW 20:06:34 10° NNE
ERS-1 Rocket 2.8 20:07:39 64° SSE 20:08:27 83° ENE 20:13:31 10° NNW
STARLINK-1269 3.6 20:05:07 10° WNW 20:09:00 77° WNW 20:09:00 77° WNW
ATLAS CENTAUR R/B 2.9 20:08:01 10° NNW 20:11:21 25° NNE 20:11:25 25° NE
ERBS 3.5 20:08:04 10° NW 20:10:29 42° NW 20:10:29 42° NW
Meteor 2-1 Rocket 4.2 20:11:14 53° SSE 20:12:32 71° E 20:18:28 10° NNE
Landsat 7 4.1 20:11:38 50° SSW 20:12:38 63° WSW 20:17:23 10° NNW
STARLINK-1200 3.8 20:10:06 10° WNW 20:13:47 69° WNW 20:13:47 69° WNW
SPOT 1/Viking Rocket 3.7 20:14:31 51° SSW 20:15:46 70° WSW 20:21:01 10° NNW
Cosmos 220 Rocket 4.2 20:13:29 10° NNW 20:17:46 65° WSW 20:17:46 65° WSW
STARLINK-1192 4.0 20:15:04 10° WNW 20:18:33 61° WNW 20:18:33 61° WNW
Cosmos 2369 4.1 20:17:39 10° NNW 20:23:09 48° NE 20:23:48 46° ENE
STARLINK-1244 4.2 20:20:03 10° WNW 20:23:20 54° W 20:23:20 54° W
Cosmos 1954 Rocket 4.3 20:21:02 20° SW 20:24:37 65° WNW 20:29:50 10° NNE
Cosmos 2208 Rocket 4.2 20:20:25 10° NNW 20:25:32 56° ENE 20:25:38 56° ENE
Cosmos 1741 Rocket 4.4 20:27:12 49° ENE 20:27:12 49° ENE 20:31:27 10° NNE
SL-08 R/B 4.4 20:21:07 10° N 20:27:17 87° W 20:28:38 58° S
Cosmos 489 Rocket 4.4 20:21:19 10° NNW 20:27:33 74° ENE 20:28:30 62° ESE
Cosmos 1821 Rocket 4.0 20:22:42 10° N 20:29:03 64° ENE 20:29:53 58° ESE
STARLINK-1138 4.4 20:25:01 10° WNW 20:28:06 48° W 20:28:06 48° W
Meteor 2-10 Rocket 3.8 20:31:30 53° ENE 20:31:30 53° ENE 20:36:04 10° NNE
Cosmos 2151 3.5 20:28:57 10° N 20:32:13 52° N 20:32:13 52° N
CZ-4C R/B 3.4 20:27:40 10° NW 20:34:14 50° NE 20:37:07 35° E
Cosmos 1076 Rocket 4.4 20:30:55 10° NNW 20:34:58 43° W 20:35:03 43° W
Cosmos 1697 Rocket 2.9 20:29:28 10° NNW 20:35:06 58° NE 20:35:27 57° ENE
SPOT 5 2.9 20:36:47 61° WNW 20:36:47 61° WNW 20:40:42 10° NNW
Cosmos 1934 Rocket 4.3 20:31:31 10° N 20:37:35 47° ENE 20:37:51 47° E
Cosmos 2058 4.2 20:40:44 10° NNW 20:44:18 34° W 20:44:18 34° W
Meteor 2-3 Rocket 4.1 20:38:58 10° N 20:44:26 51° ENE 20:44:26 51° ENE
SL-16 R/B 4.0 20:44:33 10° NNW 20:48:48 21° NE 20:50:30 19° ENE
Cosmos 1763 Rocket 3.7 20:44:34 10° NNW 20:49:35 60° W 20:49:35 60° W
Cosmos 1814 Rocket 4.1 20:47:49 10° NNW 20:52:51 74° NNE 20:52:51 74° NNE
Cosmos 1408 4.5 20:50:02 10° NNW 20:52:05 30° NW 20:52:05 30° NW
Terra 2.2 20:55:02 59° WNW 20:55:02 59° WNW 20:59:18 10° NNW
USA 32 4.3 20:50:21 10° NNW 20:55:31 61° W 20:55:38 61° W
Cosmos-2242 4.1 20:57:02 42° N 20:57:02 42° N 20:59:59 10° N
RESURS DK-1 3.6 20:53:43 10° NNW 20:56:27 40° NW 20:56:27 40° NW
Cosmos 2322 Rocket 4.0 20:54:31 10° N 20:58:44 21° NE 21:00:21 19° ENE
Cosmos 1455 4.2 21:03:41 27° N 21:03:41 27° N 21:05:37 10° N
Cosmos 1980 Rocket 2.6 20:57:51 10° NNW 21:03:10 53° NE 21:03:10 53° NE
Cosmos 2344 4.4 20:54:26 10° NW 21:03:28 69° NE 21:08:39 38° ESE
Cosmos 540 Rocket 3.7 20:59:57 10° NNW 21:04:25 66° NNW 21:04:25 66° NNW
USA 234 3.3 20:59:26 10° ENE 21:05:59 76° NNW 21:12:31 10° WSW
Cosmos 1656 4.2 21:05:23 10° NW 21:10:37 52° W 21:10:37 52° W
ALOS 2 4.5 21:13:44 24° NNE 21:13:44 24° NNE 21:16:06 10° N
Cosmos 1850 Rocket 4.4 21:13:06 60° NW 21:13:06 60° NW 21:17:59 10° NNE
Cosmos 2360 4.3 21:11:21 10° NNW 21:16:31 72° N 21:16:31 72° N
Cosmos 1825 4.4 21:14:42 10° NNW 21:16:32 24° NW 21:16:32 24° NW
ATLAS 5 CENTAUR R/B 3.4 21:20:08 10° W 21:24:06 31° NNW 21:28:36 10° NE
Cosmos 841 Rocket 4.2 21:19:58 10° NNW 21:24:13 48° WNW 21:24:13 48° WNW
Cosmos 2278 3.9 21:20:39 10° NNW 21:25:34 68° NNW 21:25:34 68° NNW
Cosmos 2082 Rocket 3.5 21:33:29 31° NE 21:33:29 31° NE 21:36:30 10° NE
Mayak 0.6 21:28:27 10° N 21:30:35 29° N 21:30:35 29° N
ASTEX 1 4.4 21:39:12 43° NW 21:39:12 43° NW 21:43:00 10° NNW
COSMOS 2406 3.7 21:45:30 56° NW 21:45:30 56° NW 21:51:03 10° NNE
Cosmos 1833 Rocket 3.3 21:47:50 52° NNE 21:47:50 52° NNE 21:52:03 10° NNE
ATLAS CENTAUR R/B 4.0 21:46:45 10° NW 21:47:36 16° NW 21:47:36 16° NW
Thor Agena Rocket 4.5 21:58:28 10° N 22:02:20 44° NNW 22:02:20 44° NNW
Cosmos 1727 Rocket 4.3 22:06:40 58° NE 22:06:40 58° NE 22:11:54 10° NNE
Cosmos 1697 Rocket 4.3 22:13:58 10° NW 22:17:11 25° WNW 22:17:11 25° WNW
Cosmos 2100 Rocket 4.3 22:15:15 10° N 22:20:33 63° NNE 22:20:33 63° NNE
CZ-4C R/B 3.1 22:16:10 10° NW 22:22:18 58° W 22:22:18 58° W
SL-16 R/B 2.9 22:28:08 10° NNW 22:32:20 50° NNW 22:32:20 50° NNW
Cosmos 2173 Rocket 4.3 22:27:45 10° N 22:32:48 62° N 22:32:48 62° N
Cosmos 2360 Rocket 3.1 22:34:46 10° NNW 22:39:34 43° NNE 22:39:34 43° NNE
Cosmos 2322 Rocket 3.0 22:38:03 10° NNW 22:42:08 49° NNW 22:42:08 49° NNW
Cosmos 1980 Rocket 3.9 22:42:16 10° NW 22:44:56 23° WNW 22:44:56 23° WNW
Cosmos 2333 Rocket 3.9 22:43:34 10° NNW 22:48:19 26° NE 22:49:56 23° ENE
USA 234 4.0 22:42:22 10° ENE 22:48:39 51° N 22:54:55 10° WNW
CZ-2D R/B 4.3 23:03:02 10° NE 23:05:54 16° E 23:05:54 16° E
ATLAS 5 CENTAUR R/B 4.4 23:06:47 10° NW 23:10:17 19° N 23:14:09 10° NE
Cosmos 2082 Rocket 3.4 23:15:18 34° NW 23:15:21 34° NW 23:20:32 10° NNE
Cosmos 2061 Rocket 4.4 23:13:05 10° NNW 23:18:10 57° NW 23:18:10 57° NW
SL-16 R/B 3.3 23:29:18 43° E 23:30:11 46° ENE 23:36:04 10° N
Cosmos 2219 Rocket 2.9 23:34:35 10° NNW 23:40:01 47° NE 23:40:10 47° ENE
COSMOS 2428 3.2 23:46:59 10° NNW 23:52:36 54° NE 23:52:47 54° ENE
Cosmos 2322 4.2 23:47:34 10° NNW 23:52:05 57° NNW 23:52:05 57° NNW
